Home > Time Zones > World Clock > Weather > Fiji > Nadi > Past weeks

Flag for Fiji Weather past 2 weeks in Nadi, Fiji

Now
72 °F

Passing clouds.


Feels Like: 74 °F
Forecast: 75 / 83 °F
Wind: 5 mph from Southeast

Location: Nandi

Current Time: Aug 29, 2014 at 10:52:31 PM

Latest Report: Aug 29, 2014 at 10:00 PM


Visibility: N/A

Pressure: 29.98 "Hg

Humidity: 73%

Dew point: 63 °F

Location of NadiLocation

Historic Weather in Nadi — Graph

°F

Nadi temperature yesterday

Maximum temperature yesterday: 81 °F (at 10:00 AM)
Minimum temperature yesterday: 64 °F (at 7:00 AM)
Average temperature yesterday: 73 °F

Past Weeks' High & Low Weather Summary

 TemperatureHumidityPressure
High88 °F (Aug 22, 1:00 PM)100% (Aug 20, 4:00 AM)30.07 "Hg (Aug 20, 4:00 AM)
Low63 °F (Aug 23, 6:00 AM)43% (Aug 23, 1:00 PM)29.89 "Hg (Aug 16, 3:00 PM)
Average73 °F72%29.99 "Hg
* Reported Aug 14 9:00 PM — Aug 29 9:00 PM, Nadi, Weather by CustomWeather, © 2014

Note: Actual official high and low records may vary slightly from our data, if they occured in-between our weather recording intervals... More about our weather records

Advertising

Nadi weather history for previous 24 hours

 ConditionsComfort  
Time TempWeatherWind HumidityBarometerVisibility
9:00 PM
Aug 29
73 °FPassing clouds.5 mph74%29.95 "HgN/A
8:00 PM75 °FPartly cloudy.6 mph74%29.95 "HgN/A
7:00 PM75 °FPartly cloudy.No wind78%29.92 "HgN/A
6:00 PM77 °FBroken clouds.6 mph74%29.89 "HgN/A
5:00 PM79 °FBroken clouds.7 mph65%29.89 "HgN/A
4:00 PM79 °FScattered clouds.10 mph61%29.89 "HgN/A
3:00 PM79 °FScattered clouds.15 mph65%29.89 "HgN/A
2:00 PM81 °FScattered clouds.15 mph66%29.89 "HgN/A
1:00 PM81 °FPassing clouds.15 mph62%29.92 "HgN/A
12:00 PM81 °FScattered clouds.16 mph58%29.95 "HgN/A
11:00 AM81 °FPassing clouds.9 mph54%29.98 "HgN/A
10:00 AM81 °FPassing clouds.3 mph54%30.01 "HgN/A
9:00 AM79 °FPassing clouds.9 mph58%30.01 "HgN/A
8:00 AM72 °FPassing clouds.7 mph78%30.01 "HgN/A
7:00 AM64 °FPassing clouds.3 mph94%30.01 "HgN/A
6:00 AM64 °FPassing clouds.3 mph88%29.98 "HgN/A
5:00 AM64 °FPassing clouds.8 mph88%29.98 "HgN/A
4:00 AM64 °FPassing clouds.5 mph88%29.98 "HgN/A
3:00 AM66 °FPassing clouds.5 mph88%29.98 "HgN/A
2:00 AM68 °FPassing clouds.3 mph78%30.01 "HgN/A
1:00 AM68 °FPassing clouds.5 mph83%30.01 "HgN/A
12:00 AM70 °FPassing clouds.3 mph78%30.01 "HgN/A
11:00 PM
Aug 28
70 °FPassing clouds.3 mph73%30.01 "HgN/A
10:00 PM72 °FPassing clouds.7 mph73%30.01 "HgN/A
Weather by CustomWeather, © 2014

See weather overviewHow to use our weather pages